Regional Weather Roundup
Issued by NWS Newport/Morehead, NC

Current Version | Previous Version | Text Only | Print | Product List | Glossary On
Versions: 1 2 3 4 5 6 7 8 9 10 11 12 13 14 15 16 17 18 19 20 21 22 23 24 25 26 27 28 29 30 31 32 33 34 35 36 37 38 39 40 41 42 43 44 45
000
ASUS42 KMHX 241310
RWRMHX
WEATHER ROUNDUP FOR EASTERN NORTH CAROLINA
NATIONAL WEATHER SERVICE NEWPORT/MOREHEAD CITY NC
900 AM EDT THU APR 24 2014

NOTE: "FAIR" INDICATES FEW OR NO CLOUDS BELOW 12,000 FEET
WITH NO SIGNIFICANT WEATHER AND/OR OBSTRUCTIONS TO VISIBILITY

NCZ015>017-031-032-045>047-102-103-241400-
NORTH COAST

CITY           SKY/WX    TMP DP  RH WIND       PRES   REMARKS
EDENTON        SUNNY     52  35  52 N8        30.12S
ELIZABETH CITY SUNNY     53  31  42 NW13      30.12R
KITTY HAWK     SUNNY     53  36  53 N9        30.09S
MANTEO         SUNNY     52  36  53 N12       30.11R

$$

NCZ045>047-081-094-103-104-241400-
CENTRAL COAST

CITY           SKY/WX    TMP DP  RH WIND       PRES   REMARKS
FRISCO         SUNNY     54  37  52 N8G17     30.10R
SWANQUARTER      N/A     54 N/A N/A VRB9      30.09R

$$

NCZ095-097-098-100-101-241400-
SOUTHERN COAST

CITY           SKY/WX    TMP DP  RH WIND       PRES   REMARKS
BEAUFORT       SUNNY     57  37  47 NE12      30.11R
CEDAR ISLAND     N/A     55 N/A N/A N10G16    30.15R
JACKSONVILLE   SUNNY     57  36  45 NE12      30.13R
NEWPORT          N/A     57  37  47 NE8         N/A
PINEY ISLAND   SUNNY     57  42  57 N8        30.12R
WILMINGTON     SUNNY     59  37  44 NE15      30.11R


$$

NCZ011>013-027>030-043-044-078>080-089-090>093-098-241400-
COASTAL PLAIN

CITY           SKY/WX    TMP DP  RH WIND       PRES   REMARKS
AHOSKIE        SUNNY     52  29  42 N8        30.14R
CLINTON        SUNNY     55  38  53 NE7       30.15R
ELIZABETHTOWN  SUNNY     56  39  52 CALM      30.13R
GOLDSBORO      SUNNY     54  33  45 NE10      30.13R
GREENVILLE     SUNNY     52  32  46 NE10      30.15R
HAVELOCK       SUNNY     56  38  50 N12       30.13R
KENANSVILLE    SUNNY     53  34  48 NE8       30.15R
KINSTON        SUNNY     54  30  40 NE13      30.15R
NEW BERN       SUNNY     55  36  48 NE7       30.14R
RICHLANDS      SUNNY     55  54  94 NE13      30.14R
ROANOKE RAPIDS NOT AVBL
ROCKY MOUNT    SUNNY     53  33  46 NE9       30.14R
WASHINGTON     SUNNY     53  33  47 NE8       30.14R
WHITEVILLE     SUNNY     58  37  45 NE8       30.12R

$$

AMZ130-135-150-152-154-156-158-170-250-252-270-ANZ085-086-088-633-658-670-241400-
MARINE OBSERVATIONS

STATION/POSITION TIME  TEMP    WIND        PRES    WAVE   SWELL
                       AIR SEA DIR/SP/G            HT/PER HT/PER
                 (UTC) (F)     (DEG/KT/KT) (MB)    (FT/S) (FT/S)
CHESAPEAKE LIGHT 1200   49     340/ 18/ 19 1018.8
BUOY 44014       1300   49 49  330/ 17/ 19 1018.1    6/ 7   2/14
DUCK             1300   50 52  350/ 11/ 13 1018.4
2E DUCK          1300      52                N/A     3/ 5
OREGON INLET     1300   52 54  350/ 13/ 17 1019.1
BUOY 44095       1300      49                N/A     5/ 6   2/13
HATTERAS CG      1300   53 61   10/ 16/ 18 1019.3
DIAMOND BUOY     1300   54 73  360/ 17/ 21 1018.5    6/ 7   2/ 9
CAPE LOOKOUT     1200   56      20/ 16/ 19 1018.7
BEAUFORT LAB     1300   56 62   40/  6/ 11 1018.9
30 SE NEW RIVER  1300   59 66   40/ 17/ 21 1019.3    4/ 4   2/ 8
5 SE WRIGHTSVILL 1200   58      40/ 19/ 23 1018.2
FRYING PAN BUOY  1300   65 68   50/ 17/ 19 1017.8    4/ 5   2/ 8
BUOY 41001       NOT AVBL
BUOY 41002       NOT AVBL
BUOY 41004       1300   71 70   70/ 12/ 14 1016.7    3/ 4   2/ 8

$$



USA.gov is the U.S. government's official web portal to all federal, state and local government web resources and services.